User: anonymous   Login
Location: Unspecified
(0.0000°N, 0.0000°E)
Time: 06:29:13
(UTC+00:00)
Language:

N. Korean satellite - Orbit

View from above orbital plane
View from above orbital plane
View from above satellite
View from above satellite

Ground track
Ground track

The orbit data is extracted from the following two-line orbital elements,

1 39026U 12072A   19286.49915325  .00001453  00000-0  54587-4 0  9992
2 39026  97.2152 285.9022 0039207  47.9104 312.5458 15.28058900379434
Epoch (UTC): 13 October 2019 11:58:46
Eccentricity: 0.0039207
inclination: 97.2152°
perigee height: 455 km
apogee height: 508 km
right ascension of ascending node: 285.9022°
argument of perigee: 47.9104°
revolutions per day: 15.28058900
mean anomaly at epoch: 312.5458°
orbit number at epoch: 37943

The dashed part of the orbit path shows where the satellite is in the earth's shadow,  

DLR